Погода в Вишневом

Россия / Владимирская область     56°12′13″N   39°28′00″E
темп.,
°C
ветер,
м/с
пор.,
м/с
влажн.,
%
обл.,
%
осадки,
мм/ч
давл.,
гПа
погр.,
м
8 марта, пн
пн800:00−6з5119184 0.7 994973
03:00−11з389276 0.8 995189
06:00−11зюз379588 0.1 995269
09:00−8з259394 0.6 996430
12:00−6ссз4685100 0.3 998765
15:00−6сз468199 0.4 10011029
18:00−9зсз379385 0.1 1004239
21:00−12сз399485 0.1 1007267
9 марта, вт
вт900:00−14сз389658 0.0 1009184
03:00−16ссз369768 0.1 1011170
06:00−18ссз269896 0.0 1013147
09:00−18ссз369598 0.1 1015266
12:00−15ссз368889 0.0 1016446
15:00−13ссз468694 0.1 1017620
18:00−16ссз3793100 0.1 1018312
21:00−20ссз3897100 0.1 1021250
10 марта, ср
ср1000:00−23ссз379888 0.0 1023166
03:00−24ссз379991 0.1 1024135
06:00−26ссз379731 0.0 1026175
09:00−25с369423 0.0 1027240
12:00−20с358711 0.0 1028358
15:00−17с35805 0.0 1028498
18:00−19ссз22900 0.0 102820
21:00−21сз23940 0.0 102923
11 марта, чт
чт1100:00−22сз23930 0.0 103023
03:00−23сз23950 0.0 103129
06:00−23зсз23970 0.0 103127
09:00−19зсз24940 0.0 1031149
12:00−12зсз128145 0.0 1031400
15:00−10з227654 0.0 1030668
18:00−13юз229086 0.0 103021
21:00−17ююз239544 0.0 103023
12 марта, пт
пт1200:00−19ююз23950 0.0 103069
03:00−21ю37940 0.0 1029125
06:00−22ю49900 0.0 1028208
09:00−18ю510830 0.0 1026306
12:00−12ююв5128213 0.0 1024460
15:00−9ююв6148255 0.0 1020655
18:00−10ююв71683100 0.0 1018788
21:00−11ююв71592100 0.4 1016827